Date String (YYYY-MM-DD hh:mm:ss) UTC,Instrument flags,Ambient pressure (hPa),Sample flow (lpm),Bypass flow (lpm),Sample temperature (°C),Ambient temperature (°C),ASC tube jacket temperature (°C),LED temperature (°C),Box temperature (°C),Sample RH (%),Span deviation,Mass concentration (μg/m³),Mass concentration (μg/m³),Mass concentration (μg/m³)
DateTimeUTC,F1_M11,P_M11,Q1_M11,Q2_M11,T1_M11,T2_M11,T3_M11,T4_M11,T5_M11,U1_M11,ZSPAN_M11,X0_M11,X2_M11,X1_M11
2022-03-13 00:00:00,,0824.3,5.00,0.00,23.8,23.0,00.0,32.7,25.5,10.4,0000.0,0002.56,0001.01,0000.65
2022-03-13 00:01:00,,0824.3,5.00,0.00,23.8,23.0,00.0,32.7,25.5,10.4,0000.0,0002.60,0001.01,0000.66
2022-03-13 00:02:00,,0824.3,4.99,0.00,23.8,23.1,00.0,32.7,25.5,10.2,0000.0,0002.51,0000.99,0000.66
2022-03-13 00:03:00,,0824.3,5.00,0.00,23.8,23.1,00.0,32.7,25.4,10.5,0000.0,0002.64,0001.04,0000.67
2022-03-13 00:04:00,,0824.3,4.99,0.00,23.7,23.1,00.0,32.7,25.4,10.6,0000.0,0002.59,0001.01,0000.67
2022-03-13 00:05:00,,0824.3,5.00,0.00,23.8,23.1,00.0,32.7,25.5,10.5,0000.0,0002.66,0001.03,0000.67
2022-03-13 00:06:00,,0824.3,5.00,0.00,23.8,23.1,00.0,32.7,25.5,10.3,0000.0,0001.79,0001.00,0000.66
2022-03-13 00:07:00,,0824.4,5.01,0.00,23.8,23.1,00.0,32.7,25.5,10.5,0000.0,0001.89,0001.04,0000.67
2022-03-13 00:08:00,,0824.3,5.00,0.00,23.8,23.1,00.0,32.8,25.5,10.4,0000.0,0001.93,0001.05,0000.66
2022-03-13 00:09:00,,0824.4,5.00,0.00,23.8,23.1,00.0,32.8,25.6,10.3,0000.0,0001.92,0001.05,0000.66
2022-03-13 00:10:00,,0824.3,5.00,0.00,23.8,23.1,00.0,32.8,25.6,10.4,0000.0,0001.91,0001.05,0000.66
2022-03-13 00:11:00,,0824.4,4.99,0.00,23.8,23.0,00.0,32.8,25.6,10.3,0000.0,0001.96,0001.08,0000.66
2022-03-13 00:12:00,,0824.4,5.00,0.00,23.8,23.0,00.0,32.8,25.6,10.1,0000.0,0001.95,0001.09,0000.67
2022-03-13 00:13:00,,0824.3,5.01,0.00,23.8,23.0,00.0,32.8,25.6,10.2,0000.0,0001.98,0001.08,0000.66
2022-03-13 00:14:00,,0824.4,5.00,0.00,23.8,23.0,00.0,32.8,25.5,10.3,0000.0,0001.98,0001.07,0000.66
2022-03-13 00:15:00,,0824.4,5.00,0.00,23.8,23.0,00.0,32.8,25.5,10.2,0000.0,0001.99,0001.08,0000.67
2022-03-13 00:16:00,,0824.3,5.00,0.00,23.8,23.0,00.0,32.8,25.5,10.3,0000.0,0001.94,0001.06,0000.67
2022-03-13 00:17:00,,0824.3,5.00,0.00,23.7,23.0,00.0,32.7,25.5,10.4,0000.0,0002.04,0001.08,0000.67
2022-03-13 00:18:00,,0824.3,5.00,0.00,23.7,23.0,00.0,32.7,25.5,10.1,0000.0,0002.15,0001.07,0000.67
2022-03-13 00:19:00,,0824.3,5.00,0.00,23.7,23.0,00.0,32.7,25.5,10.0,0000.0,0002.31,0001.11,0000.68
2022-03-13 00:20:00,,0824.4,5.01,0.00,23.7,22.9,00.0,32.7,25.5,10.2,0000.0,0002.32,0001.13,0000.69
2022-03-13 00:21:00,,0824.4,4.98,0.00,23.7,22.9,00.0,32.7,25.5,10.1,0000.0,0002.24,0001.11,0000.69
2022-03-13 00:22:00,,0824.5,5.00,0.00,23.7,22.9,00.0,32.7,25.5,10.2,0000.0,0002.25,0001.08,0000.69
2022-03-13 00:23:00,,0824.6,5.01,0.00,23.7,22.9,00.0,32.7,25.5,10.2,0000.0,0002.31,0001.10,0000.69
2022-03-13 00:24:00,,0824.6,5.01,0.00,23.7,22.9,00.0,32.7,25.5,10.3,0000.0,0002.38,0001.16,0000.69
2022-03-13 00:25:00,,0824.6,4.99,0.00,23.7,22.9,00.0,32.7,25.5,10.1,0000.0,0002.36,0001.16,0000.70
2022-03-13 00:26:00,,0824.7,4.99,0.00,23.7,22.9,00.0,32.7,25.5,10.3,0000.0,0002.53,0001.18,0000.69
2022-03-13 00:27:00,,0824.7,5.00,0.00,23.7,22.9,00.0,32.7,25.4,10.2,0000.0,0002.61,0001.22,0000.70
2022-03-13 00:28:00,,0824.8,4.99,0.00,23.6,22.9,00.0,32.7,25.3,10.2,0000.0,0002.46,0001.19,0000.70
2022-03-13 00:29:00,,0824.8,5.01,0.00,23.6,22.9,00.0,32.7,25.3,10.1,0000.0,0002.22,0001.15,0000.71
2022-03-13 00:30:00,,0824.8,5.00,0.00,23.6,22.9,00.0,32.6,25.3,10.2,0000.0,0002.11,0001.11,0000.71
2022-03-13 00:31:00,,0824.9,4.99,0.00,23.6,22.9,00.0,32.6,25.3,10.3,0000.0,0002.13,0001.12,0000.72
2022-03-13 00:32:00,,0824.9,5.00,0.00,23.6,22.9,00.0,32.6,25.2,10.3,0000.0,0002.15,0001.12,0000.72
2022-03-13 00:33:00,,0824.9,5.00,0.00,23.6,22.9,00.0,32.6,25.3,10.1,0000.0,0002.15,0001.15,0000.72
2022-03-13 00:34:00,,0824.9,4.99,0.00,23.6,22.9,00.0,32.6,25.3,10.2,0000.0,0002.02,0001.11,0000.72
2022-03-13 00:35:00,,0824.9,5.00,0.00,23.6,22.9,00.0,32.6,25.2,10.2,0000.0,0002.02,0001.09,0000.73
2022-03-13 00:36:00,,0824.9,5.01,0.00,23.6,22.9,00.0,32.6,25.3,10.2,0000.0,0002.13,0001.09,0000.73
2022-03-13 00:37:00,,0824.9,5.00,0.00,23.7,22.9,00.0,32.6,25.3,10.2,0000.0,0001.98,0001.08,0000.74
2022-03-13 00:38:00,,0824.8,5.00,0.00,23.7,22.9,00.0,32.6,25.3,10.4,0000.0,0001.90,0001.05,0000.75
2022-03-13 00:39:00,,0824.9,4.99,0.00,23.7,22.9,00.0,32.6,25.3,10.3,0000.0,0001.98,0001.08,0000.75
2022-03-13 00:40:00,,0824.8,5.02,0.00,23.7,22.9,00.0,32.7,25.3,10.0,0000.0,0002.02,0001.11,0000.76
2022-03-13 00:41:00,,0824.8,4.99,0.00,23.7,22.9,00.0,32.7,25.3,09.7,0000.0,0002.06,0001.13,0000.76
2022-03-13 00:42:00,,0824.7,5.00,0.00,23.7,22.9,00.0,32.7,25.3,09.8,0000.0,0002.03,0001.11,0000.75
2022-03-13 00:43:00,,0824.8,4.99,0.00,23.7,22.9,00.0,32.7,25.3,09.8,0000.0,0002.09,0001.13,0000.74
2022-03-13 00:44:00,,0824.9,5.00,0.00,23.7,22.9,00.0,32.7,25.3,09.9,0000.0,0002.03,0001.11,0000.74
2022-03-13 00:45:00,,0824.8,5.01,0.00,23.6,22.9,00.0,32.7,25.2,10.0,0000.0,0002.20,0001.14,0000.74
2022-03-13 00:46:00,,0824.8,5.00,0.00,23.7,22.9,00.0,32.7,25.2,10.0,0000.0,0002.16,0001.14,0000.74
2022-03-13 00:47:00,,0824.8,5.00,0.00,23.7,22.9,00.0,32.7,25.4,10.1,0000.0,0002.08,0001.16,0000.75
2022-03-13 00:48:00,,0824.8,4.99,0.00,23.7,22.9,00.0,32.7,25.4,10.2,0000.0,0002.10,0001.17,0000.75
2022-03-13 00:49:00,,0824.7,5.00,0.00,23.7,22.9,00.0,32.7,25.4,10.1,0000.0,0002.16,0001.19,0000.75
2022-03-13 00:50:00,,0824.7,5.00,0.00,23.7,22.9,00.0,32.7,25.3,09.9,0000.0,0002.12,0001.17,0000.75
2022-03-13 00:51:00,,0824.7,5.01,0.00,23.7,22.9,00.0,32.7,25.3,10.0,0000.0,0002.04,0001.15,0000.75
2022-03-13 00:52:00,,0824.9,5.00,0.00,23.7,22.9,00.0,32.7,25.3,09.9,0000.0,0002.00,0001.14,0000.74
2022-03-13 00:53:00,,0824.8,4.99,0.00,23.7,22.9,00.0,32.7,25.2,10.0,0000.0,0001.99,0001.15,0000.75
2022-03-13 00:54:00,,0824.7,5.00,0.00,23.7,22.8,00.0,32.7,25.2,09.8,0000.0,0001.94,0001.13,0000.75
2022-03-13 00:55:00,,0824.7,5.00,0.00,23.7,22.8,00.0,32.7,25.3,09.5,0000.0,0002.03,0001.15,0000.77
2022-03-13 00:56:00,,0824.8,5.00,0.00,23.7,22.9,00.0,32.7,25.3,09.8,0000.0,0001.96,0001.15,0000.77
2022-03-13 00:57:00,,0824.8,5.01,0.00,23.6,22.9,00.0,32.7,25.3,09.9,0000.0,0001.82,0001.11,0000.77
2022-03-13 00:58:00,,0824.8,5.01,0.00,23.6,22.9,00.0,32.7,25.3,09.9,0000.0,0001.73,0001.07,0000.76
2022-03-13 00:59:00,,0824.9,4.99,0.00,23.6,22.8,00.0,32.7,25.3,10.0,0000.0,0001.71,0001.07,0000.76
